DELTA 1 DEB, 12531

Orbit data source: Space-Track

DELTA 1 DEB, 12531 is space debris in SSO originally from a launch on Thu, 29 Jul 1976 UTC launched from the Air Force Western Test Range (AFWTR). Debris objects in space refer to the collection of defunct objects orbiting the Earth. Examples of debris include non-operational satellites, rocket bodies, and fragments generated from explosions, collisions, or faulty payload assembly.

Loading next visibility...
Identifier
12531, 1976-077DL
Orbit
SSO
Country
Flag of USUS
Related business
Manufacturer
Unknown
Mission
Spacecraft
Bus & Motor
Unknown
Mass
Unknown
Launch date (UTC)
1976-07-29 (50 years ago)
Launch vehicle
Unknown
Launch site
Air Force Western Test Range (AFWTR)
Object type
Payload
Rocket body
Debris
Shape & HBR
Unknown shape, 0.1 m
Radar Cross Section
Medium (>0.1 m² and <1 m²)

Expand to show TLE details & history
Last TLE update: 2 days ago

TLE from 2 days ago
0 DELTA 1 DEB
1 12531U 76077DL  26254.33204552  .00000014  00000-0  52751-3 0  9990
2 12531 101.8074  35.3854 0135914 314.7560  72.7529 12.18519161 57731
Epoch: 2026-09-11T07:58Z
TLE epoch observation values (Epoch: 2026-09-11T07:58:08.732Z)
Latitude
28.37595°
Longitude
-80.9598°
Altitude
1,571.373 km
Speed
7.098 km/s
True Right ascension
01h 55m 44s
True Declination
28° 14' 50"
Sunlit
Object was in full shadow at epoch
Visualization orbit readout
Latitude
Unknown
Longitude
Unknown
Altitude
Unknown
Speed
Unknown
Apparent Right ascension
Unknown
Apparent Declination
Unknown
Sunlit
N/A
Visualization observer readout
Local Sidereal Time
16:33:24
Azimuth
Unknown
Elevation
Unknown
Doppler factor
Unknown
Orbital elements
Apogee altitude
1,704.977 km
Perigee altitude
1,488.201 km
Semi-major axis
7,974.726 km
Eccentricity
0.01359
Inclination
101.8074°
RAAN
35.3854°
Arg. of periapsis
314.756°
True anomaly
74.24769°
Mean anomaly
72.7529°
Eccentric anomaly
73.49956°
Mean motion
3.04768 °/min
Orbital period
118.12 mins
BSTAR
0.00052751
Loading maneuver chart data...
Computing Atmospheric mass density...
Loading historical data...
Loading historical data...
Loading historical data...
Loading historical data...
Loading historical data...
Loading historical data...
Loading historical data...

Documentation

Showing up to 5 results
|